Regional Weather Roundup
Issued by NWS Little Rock, AR

Home | Current Version | Previous Version | Text Only | Print | Product List | Glossary Off
Versions: 1 2 3 4 5 6 7 8 9 10 11 12 13 14 15 16 17 18 19 20 21 22 23 24 25 26 27 28 29 30 31 32 33 34 35 36 37 38 39 40 41 42 43 44 45 46 47 48 49 50

000
ASUS44 KLZK 260705
RWRLZK

WEATHER ROUNDUP FOR ARKANSAS
NATIONAL WEATHER SERVICE LITTLE ROCK AR
200 AM CDT THU MAR 26 2015

NOTE: "FAIR" INDICATES FEW OR NO CLOUDS BELOW 12,000 FEET WITH NO
SIGNIFICANT WEATHER AND/OR OBSTRUCTIONS TO VISIBILITY.

ARZ001-003-010-029-260800-
NORTHWEST ARKANSAS

CITY           SKY/WX    TMP DP  RH WIND       PRES   REMARKS
FAYETTEVILLE   LGT RAIN  53  53 100 NE10G17   29.87F
FORT SMITH     RAIN      57  55  93 SE10      29.89S
HARRISON       RAIN      53  53 100 CALM      29.92R FOG
BENTONVILLE    CLOUDY    48  45  87 N14G26    29.97R
ROGERS         LGT RAIN  47  46  97 N17       29.98R FOG
SILOAM SPGS    CLOUDY    48  43  81 N21G29    29.98R
HIGHFILL       LGT RAIN  48  46  93 N21G30    29.96R
$$

ARZ004-005-016-260800-
NORTH CENTRAL ARKANSAS

CITY           SKY/WX    TMP DP  RH WIND       PRES   REMARKS
BATESVILLE     MOCLDY    57  54  88 CALM      29.91F THUNDER
FLIPPIN        CLOUDY    55  50  82 SW3       29.88S VSB 1
MTN HOME       LGT RAIN  54  54 100 SE8       29.84F FOG
$$

ARZ040-041-260800-
WEST CENTRAL ARKANSAS

CITY           SKY/WX    TMP DP  RH WIND       PRES   REMARKS
MENA           CLOUDY    61  55  82 N5        29.93R THUNDER
MOUNT IDA      CLOUDY    61  54  77 CALM      29.90R
$$

ARZ009-017-025-026-028-260800-
NORTHEAST ARKANSAS

CITY           SKY/WX    TMP DP  RH WIND       PRES   REMARKS
CORNING          N/A     55  55 100 N6        29.93R
JONESBORO      CLOUDY    59  56  89 N6        29.91R
NEWPORT        CLOUDY    61  58  90 NW12G22   29.91S
BLYTHEVILLE    FAIR      58  57  97 N12       29.89S
$$

ARZ022-023-033-042-044-260800-
CENTRAL ARKANSAS

CITY           SKY/WX    TMP DP  RH WIND       PRES   REMARKS
LITTLE ROCK    CLOUDY    68  53  58 W6        29.89R
N LITTLE ROCK    N/A     67  57  71 NW9       29.89R
JACKSONVILLE   MOCLDY    66  55  66 N8        29.87S
SEARCY         MOCLDY    64  55  72 N14G29    29.90S
HOT SPRINGS    MOCLDY    68  55  63 N9        29.90R
RUSSELLVILLE     N/A    N/A N/A N/A MISG      29.93R
CLINTON        LGT RAIN  57  55  94 CALM      29.91F
$$

ARZ036-260800-
EAST ARKANSAS

CITY           SKY/WX    TMP DP  RH WIND       PRES   REMARKS
WEST MEMPHIS   MOCLDY    62  58  86 S7        29.88R
$$

ARZ050-053-066-070-073-260800-
SOUTHWEST ARKANSAS

CITY           SKY/WX    TMP DP  RH WIND       PRES   REMARKS
ARKADELPHIA    FAIR      63  60  90 CALM      29.90R
CAMDEN         FAIR      64  54  68 CALM      29.87R
TEXARKANA      FAIR      67  56  67 S10       29.81F
EL DORADO      FAIR      63  56  78 S8        29.86S
$$

ARZ056-057-069-260800-
SOUTHEAST ARKANSAS

CITY           SKY/WX    TMP DP  RH WIND       PRES   REMARKS
PINE BLUFF     FAIR      67  55  65 W8        29.90R
STUTTGART      FAIR      66  55  68 SW7       29.90R
MONTICELLO     FAIR      64  55  72 S7        29.86R

$$





USA.gov is the U.S. government's official web portal to all federal, state and local government web resources and services.